• In Germany
  • List of Countries
  • For 7 days
  • Water Temperature
  • Satellite Maps
  • Weather Map
  • Weather Widgets
  • user-avatar
    Login

    Hourly Weather Albany

    Today, 29 May, Monday

    Time Temperature Precipitation Wind Pressure Humidity
    00:00 +12°C° 0 mm 3 mps 765 mmHg 79%
    01:00 +11°C° 0 mm 3 mps 765 mmHg 81%
    02:00 +11°C° 0 mm 3 mps 765 mmHg 83%
    03:00 +11°C° 0 mm 3 mps 765 mmHg 83%
    04:00 +11°C° 0 mm 3 mps 765 mmHg 83%
    05:00 +11°C° 0 mm 3 mps 765 mmHg 83%
    06:00 +11°C° 0 mm 3 mps 765 mmHg 82%
    07:00 +11°C° 0 mm 3 mps 765 mmHg 81%
    08:00 +12°C° 0 mm 4 mps 765 mmHg 80%
    09:00 +13°C° 0 mm 3 mps 765 mmHg 73%
    10:00 +16°C° 0 mm 3 mps 765 mmHg 66%
    11:00 +17°C° 0 mm 3 mps 765 mmHg 59%
    12:00 +18°C° 0 mm 2 mps 765 mmHg 56%
    13:00 +20°C° 0 mm 1 mps 765 mmHg 53%
    14:00 +21°C° 0 mm 1 mps 764 mmHg 50%
    15:00 +19°C° 0 mm 1 mps 764 mmHg 56%
    16:00 +18°C° 0 mm 1 mps 764 mmHg 62%
    17:00 +15°C° 0 mm 2 mps 764 mmHg 68%
    18:00 +14°C° 0 mm 2 mps 765 mmHg 70%
    19:00 +14°C° 0 mm 2 mps 765 mmHg 72%
    20:00 +13°C° 0 mm 2 mps 765 mmHg 73%
    21:00 +12°C° 0 mm 3 mps 765 mmHg 72%
    22:00 +12°C° 0 mm 3 mps 765 mmHg 70%
    23:00 +11°C° 0 mm 4 mps 765 mmHg 69%

    Tomorrow, 30 May, Tuesday

    Time Temperature Precipitation Wind Pressure Humidity
    00:00 +11°C° 0 mm 4 mps 765 mmHg 68%
    01:00 +10°C° 0 mm 5 mps 764 mmHg 66%
    02:00 +10°C° 0 mm 5 mps 764 mmHg 65%
    03:00 +10°C° 0 mm 5 mps 764 mmHg 65%
    04:00 +10°C° 0 mm 5 mps 764 mmHg 66%
    05:00 +10°C° 0 mm 5 mps 764 mmHg 66%
    06:00 +10°C° 0 mm 5 mps 764 mmHg 67%
    07:00 +10°C° 0 mm 5 mps 763 mmHg 67%
    08:00 +10°C° 0 mm 5 mps 763 mmHg 68%
    09:00 +13°C° 0 mm 5 mps 763 mmHg 62%
    10:00 +15°C° 0 mm 5 mps 763 mmHg 56%
    11:00 +17°C° 0 mm 5 mps 763 mmHg 50%
    12:00 +19°C° 0 mm 4 mps 762 mmHg 47%
    13:00 +20°C° 0 mm 3 mps 762 mmHg 45%
    14:00 +21°C° 0 mm 3 mps 761 mmHg 43%
    15:00 +19°C° 0 mm 2 mps 761 mmHg 53%
    16:00 +18°C° 0 mm 1 mps 761 mmHg 63%
    17:00 +15°C° 0 mm 1 mps 761 mmHg 73%
    18:00 +15°C° 0 mm 1 mps 762 mmHg 71%
    19:00 +15°C° 0 mm 2 mps 762 mmHg 70%
    20:00 +14°C° 0 mm 2 mps 762 mmHg 68%
    21:00 +14°C° 0 mm 3 mps 762 mmHg 67%
    22:00 +14°C° 0 mm 3 mps 762 mmHg 66%
    23:00 +14°C° 0 mm 3 mps 761 mmHg 65%

    Day after tomorrow, 31 May, Wednesday

    Time Temperature Precipitation Wind Pressure Humidity
    00:00 +14°C° 0 mm 4 mps 761 mmHg 66%
    01:00 +13°C° 0 mm 4 mps 761 mmHg 68%
    02:00 +13°C° 0 mm 4 mps 761 mmHg 69%
    03:00 +13°C° 0 mm 4 mps 761 mmHg 67%
    04:00 +13°C° 0 mm 5 mps 760 mmHg 65%
    05:00 +14°C° 0 mm 5 mps 760 mmHg 63%
    06:00 +14°C° 0 mm 5 mps 760 mmHg 61%
    07:00 +14°C° 0 mm 5 mps 760 mmHg 59%
    08:00 +14°C° 0 mm 5 mps 761 mmHg 57%
    09:00 +16°C° 0 mm 5 mps 761 mmHg 53%
    10:00 +17°C° 0 mm 5 mps 760 mmHg 49%
    11:00 +20°C° 0 mm 5 mps 760 mmHg 45%
    12:00 +21°C° 0 mm 5 mps 760 mmHg 43%
    13:00 +22°C° 0 mm 4 mps 759 mmHg 40%
    14:00 +25°C° 0 mm 4 mps 759 mmHg 37%
    15:00 +22°C° 0 mm 3 mps 759 mmHg 43%
    16:00 +21°C° 0 mm 3 mps 759 mmHg 48%
    17:00 +19°C° 0 mm 2 mps 759 mmHg 53%
    18:00 +18°C° 0 mm 2 mps 760 mmHg 55%
    19:00 +18°C° 0 mm 3 mps 760 mmHg 56%
    20:00 +17°C° 0 mm 3 mps 760 mmHg 58%
    21:00 +16°C° 0 mm 3 mps 760 mmHg 60%
    22:00 +16°C° 0 mm 3 mps 760 mmHg 62%
    23:00 +16°C° 0 mm 3 mps 760 mmHg 63%

    1 June, Thursday

    Time Temperature Precipitation Wind Pressure Humidity
    00:00 +14°C° 0 mm 3 mps 760 mmHg 66%
    01:00 +14°C° 0 mm 3 mps 760 mmHg 68%
    02:00 +14°C° 0 mm 4 mps 759 mmHg 70%
    03:00 +13°C° 0 mm 4 mps 759 mmHg 73%
    04:00 +13°C° 0 mm 4 mps 759 mmHg 75%
    05:00 +13°C° 0 mm 4 mps 759 mmHg 78%
    06:00 +13°C° 0 mm 4 mps 760 mmHg 80%
    07:00 +13°C° 0 mm 4 mps 760 mmHg 83%
    08:00 +14°C° 0 mm 4 mps 760 mmHg 85%
    09:00 +15°C° 0 mm 5 mps 761 mmHg 81%
    10:00 +17°C° 0 mm 5 mps 761 mmHg 76%
    11:00 +19°C° 0 mm 6 mps 761 mmHg 72%
    12:00 +20°C° 0 mm 6 mps 761 mmHg 67%
    13:00 +21°C° 0 mm 5 mps 761 mmHg 61%
    14:00 +21°C° 0 mm 5 mps 760 mmHg 56%
    15:00 +20°C° 0 mm 4 mps 761 mmHg 61%
    16:00 +19°C° 0 mm 3 mps 761 mmHg 65%
    17:00 +18°C° 0 mm 3 mps 761 mmHg 70%
    18:00 +17°C° 0 mm 3 mps 762 mmHg 72%
    19:00 +17°C° 0 mm 3 mps 762 mmHg 75%
    20:00 +16°C° 0 mm 3 mps 763 mmHg 78%
    21:00 +15°C° 0 mm 4 mps 763 mmHg 80%
    22:00 +15°C° 0 mm 4 mps 763 mmHg 81%
    23:00 +14°C° 0 mm 4 mps 763 mmHg 83%

    2 June, Friday

    Time Temperature Precipitation Wind Pressure Humidity
    00:00 +14°C° 0 mm 4 mps 763 mmHg 85%
    01:00 +14°C° 0 mm 4 mps 763 mmHg 86%
    02:00 +14°C° 0 mm 4 mps 763 mmHg 88%
    03:00 +14°C° 0 mm 4 mps 763 mmHg 89%
    04:00 +13°C° 0 mm 4 mps 763 mmHg 90%
    05:00 +13°C° 0 mm 3 mps 763 mmHg 91%
    06:00 +13°C° 0 mm 3 mps 764 mmHg 90%
    07:00 +13°C° 0 mm 3 mps 764 mmHg 89%
    08:00 +14°C° 0 mm 3 mps 764 mmHg 88%
    09:00 +15°C° 0 mm 4 mps 764 mmHg 79%
    10:00 +18°C° 0 mm 4 mps 764 mmHg 71%
    11:00 +20°C° 0 mm 4 mps 764 mmHg 62%
    12:00 +21°C° 0 mm 4 mps 763 mmHg 60%
    13:00 +21°C° 0 mm 3 mps 763 mmHg 58%
    14:00 +22°C° 0 mm 3 mps 762 mmHg 56%
    15:00 +21°C° 0 mm 3 mps 762 mmHg 60%
    16:00 +20°C° 0 mm 3 mps 762 mmHg 65%
    17:00 +19°C° 0 mm 3 mps 762 mmHg 69%
    18:00 +18°C° 0 mm 3 mps 763 mmHg 73%
    19:00 +17°C° 0 mm 3 mps 763 mmHg 76%
    20:00 +17°C° 0 mm 4 mps 763 mmHg 79%
    21:00 +15°C° 0 mm 4 mps 763 mmHg 81%
    22:00 +15°C° 0 mm 4 mps 763 mmHg 84%
    23:00 +15°C° 0 mm 5 mps 762 mmHg 87%

    3 June, Saturday

    Time Temperature Precipitation Wind Pressure Humidity
    00:00 +15°C° 0 mm 5 mps 762 mmHg 88%
    01:00 +15°C° 0 mm 5 mps 762 mmHg 89%
    02:00 +15°C° 0 mm 5 mps 762 mmHg 90%
    03:00 +15°C° 0.1 mm 6 mps 762 mmHg 89%
    04:00 +15°C° 0.1 mm 6 mps 761 mmHg 88%
    05:00 +16°C° 0.1 mm 6 mps 761 mmHg 87%
    06:00 +16°C° 0.3 mm 6 mps 762 mmHg 87%
    07:00 +16°C° 0.3 mm 7 mps 762 mmHg 86%
    08:00 +16°C° 0.3 mm 7 mps 763 mmHg 86%
    09:00 +16°C° 0.1 mm 7 mps 763 mmHg 82%
    10:00 +16°C° 0.1 mm 7 mps 764 mmHg 79%
    11:00 +16°C° 0.1 mm 8 mps 764 mmHg 75%
    12:00 +16°C° 0 mm 7 mps 764 mmHg 70%
    13:00 +16°C° 0 mm 7 mps 764 mmHg 65%
    14:00 +16°C° 0 mm 7 mps 764 mmHg 59%
    15:00 +16°C° 0 mm 7 mps 765 mmHg 59%
    16:00 +15°C° 0 mm 6 mps 765 mmHg 59%
    17:00 +15°C° 0 mm 6 mps 766 mmHg 58%
    18:00 +14°C° 0 mm 5 mps 767 mmHg 60%
    19:00 +13°C° 0 mm 5 mps 767 mmHg 62%
    20:00 +12°C° 0 mm 4 mps 768 mmHg 65%
    21:00 +12°C° 0 mm 4 mps 768 mmHg 65%
    22:00 +12°C° 0 mm 3 mps 768 mmHg 66%
    23:00 +12°C° 0 mm 3 mps 768 mmHg 67%
    Show more